Location: Hamilton
(37.7830°S, 175.2830°E)
Time: 02:00:37
(UTC+13:00)

NOSS 3-2 (C) - Pass Details

Date: 24 January 2019
Orbit: 841 x 1372 km, 63.4° (Epoch: 28 January)

Event Time Altitude Azimuth Distance (km) Brightness Sun altitude
Exits shadow 23:03:16 40° 36° (NE) 1,871 4.4 -23.3°
Maximum altitude 23:05:01 45° 66° (ENE) 1,735 4.4 -23.5°
Drops below altitude 10° 23:12:19 10° 135° (SE) 3,194 6.3 -24.3°
Sets 23:15:06 0° 140° (SE) 4,092 6.9 -24.7°
